Weather History for Seminole, TX

Change the Weather History Date:

Tuesday, August 6, 2013

  Actual Average (KHOB) Record (KHOB)
Temperature  
Mean Temperature 87 °F -  
Max Temperature 101 °F 92 °F 100 °F (1952)
Min Temperature 73 °F 66 °F 60 °F (1998)
Cooling Degree Days 22    
Growing Degree Days 37 (Base 50)    
Moisture  
Dew Point 54 °F    
Average Humidity 37    
Maximum Humidity 57    
Minimum Humidity 15    
Precipitation  
Precipitation 0.01 in - - ()
Sea Level Pressure  
Sea Level Pressure 29.97 in    
Wind  
Wind Speed 9 mph (SW)    
Max Wind Speed 22 mph    
Max Gust Speed 33 mph    
Visibility 10 miles    
Events Rain    
Averages and records for this station are not official NWS values.
T = Trace of Precipitation, MM = Missing Value Source: NWS Daily Summary

Daily Weather History Graph

Daily Weather History Graph

Search for Another Location

Airport:

Trip Planner

Search our weather history database for the weather conditions in past years. The results will help you decide how hot, cold, wet, or windy it might be!

Date:

Astronomy

Aug. 06, 2013 Rise Set
Actual Time 7:08 AM CDT 8:44 PM CDT
Civil Twilight 6:41 AM CDT 9:10 PM CDT
Nautical Twilight 6:09 AM CDT 9:42 PM CDT
Astronomical Twilight 5:36 AM CDT 10:15 PM CDT
Moon 6:58 AM CDT (8/6) 8:25 PM CDT (8/6)
Length of Visible Light 14h 28m
Length of Day
13h 35m
Waning Crescent, 0% of the Moon is Illuminated
Aug 6
Waning Crescent
Aug 6
New
Aug 14
First Quarter
Aug 20
Full
Aug 28
Last Quarter

Hourly Weather History & Observations

Time (CDT) Temp. Heat Index Dew Point Humidity Pressure Visibility Wind Dir Wind Speed Gust Speed Precip Events Conditions
12:15 AM 82.6 °F 81.6 °F 53.8 °F 37% 29.99 in 10.0 mi South 8.1 mph - N/A   Clear
12:35 AM 81.5 °F 80.9 °F 54.1 °F 39% 29.99 in 10.0 mi South 8.1 mph - N/A   Clear
12:55 AM 82.6 °F 81.7 °F 54.5 °F 38% 30.00 in 10.0 mi South 10.4 mph - N/A   Clear
1:15 AM 81.9 °F 81.3 °F 55.2 °F 40% 30.00 in 10.0 mi SSW 9.2 mph - N/A   Clear
1:35 AM 81.5 °F 81.1 °F 55.4 °F 41% 30.00 in 10.0 mi South 10.4 mph - N/A   Clear
1:55 AM 81.0 °F 80.7 °F 55.2 °F 41% 30.00 in 10.0 mi South 9.2 mph - N/A   Clear
2:15 AM 80.4 °F 80.4 °F 55.0 °F 42% 30.00 in 10.0 mi South 9.2 mph - N/A   Clear
2:35 AM 79.7 °F - 55.4 °F 43% 29.99 in 10.0 mi South 10.4 mph - N/A   Clear
2:55 AM 79.7 °F - 55.4 °F 43% 29.99 in 10.0 mi South 9.2 mph - N/A   Clear
3:15 AM 79.0 °F - 55.4 °F 44% 29.99 in 10.0 mi SSW 9.2 mph - N/A   Clear
3:35 AM 78.1 °F - 55.6 °F 46% 29.98 in 10.0 mi South 8.1 mph - N/A   Clear
3:55 AM 77.5 °F - 55.8 °F 47% 29.98 in 10.0 mi South 8.1 mph - N/A   Clear
4:15 AM 77.4 °F - 55.8 °F 47% 29.98 in 10.0 mi South 6.9 mph - N/A   Clear
4:35 AM 76.6 °F - 56.1 °F 49% 29.98 in 10.0 mi South 6.9 mph - N/A   Clear
4:55 AM 76.1 °F - 56.3 °F 50% 29.98 in 10.0 mi South 5.8 mph - N/A   Clear
5:15 AM 75.9 °F - 56.3 °F 50% 29.98 in 10.0 mi South 6.9 mph - N/A   Clear
5:35 AM 75.7 °F - 56.3 °F 51% 29.98 in 10.0 mi SSW 5.8 mph - N/A   Scattered Clouds
5:55 AM 75.6 °F - 56.3 °F 51% 29.97 in 10.0 mi South 5.8 mph - N/A   Scattered Clouds
6:15 AM 75.6 °F - 56.1 °F 51% 29.97 in 10.0 mi South 5.8 mph - N/A   Clear
6:35 AM 74.5 °F - 56.3 °F 53% 29.98 in 10.0 mi SSW 5.8 mph - N/A   Clear
6:55 AM 73.9 °F - 56.3 °F 54% 29.98 in 10.0 mi South 4.6 mph - N/A   Clear
7:15 AM 73.4 °F - 56.3 °F 55% 29.99 in 10.0 mi SSW 3.5 mph - N/A   Clear
7:35 AM 73.9 °F - 56.3 °F 54% 29.99 in 10.0 mi SSW 5.8 mph - N/A   Clear
7:55 AM 75.2 °F - 56.3 °F 52% 29.99 in 10.0 mi SSW 5.8 mph - N/A   Clear
8:15 AM 76.3 °F - 56.3 °F 50% 30.00 in 10.0 mi SSW 4.6 mph - N/A   Clear
8:35 AM 77.5 °F - 56.8 °F 49% 30.00 in 10.0 mi SSW 6.9 mph - N/A   Clear
8:55 AM 79.9 °F - 56.7 °F 45% 30.00 in 10.0 mi SSW 9.2 mph - N/A   Clear
9:15 AM 82.6 °F 82.0 °F 56.3 °F 40% 30.00 in 10.0 mi SSW 12.7 mph - N/A   Clear
9:35 AM 84.2 °F 83.3 °F 56.7 °F 39% 30.00 in 10.0 mi SW 10.4 mph - N/A   Clear
9:55 AM 86.7 °F 85.1 °F 55.6 °F 34% 30.00 in 10.0 mi SW 10.4 mph - N/A   Clear
10:15 AM 88.0 °F 86.3 °F 55.2 °F 33% 30.00 in 10.0 mi SW 9.2 mph 16.1 mph N/A   Clear
10:35 AM 89.4 °F 87.5 °F 54.7 °F 31% 30.00 in 7.0 mi West 12.7 mph - N/A   Clear
10:55 AM 90.9 °F 88.7 °F 54.9 °F 29% 30.00 in 10.0 mi West 12.7 mph 16.1 mph N/A   Clear
11:15 AM 92.3 °F 89.9 °F 54.0 °F 27% 30.00 in 10.0 mi West 11.5 mph - N/A   Clear
11:35 AM 93.9 °F 91.7 °F 54.0 °F 26% 30.00 in 10.0 mi West 11.5 mph - N/A   Clear
11:55 AM 95.2 °F 93.0 °F 54.0 °F 25% 30.00 in 7.0 mi West 10.4 mph - N/A   Clear
12:15 PM 95.9 °F - 52.7 °F 23% 30.00 in 10.0 mi West 8.1 mph - N/A   Clear
12:35 PM 97.3 °F - 51.6 °F 21% 29.99 in 10.0 mi WNW 8.1 mph - N/A   Clear
12:55 PM 97.9 °F - 51.1 °F 21% 29.99 in 10.0 mi West 12.7 mph 18.4 mph N/A   Clear
1:15 PM 98.8 °F - 50.7 °F 20% 29.98 in 10.0 mi WNW 8.1 mph 16.1 mph N/A   Clear
1:35 PM 99.7 °F - 50.5 °F 19% 29.98 in 10.0 mi West 9.2 mph - N/A   Clear
1:55 PM 98.2 °F - 50.2 °F 20% 29.97 in 10.0 mi WNW 11.5 mph 19.6 mph N/A   Clear
2:15 PM 99.5 °F - 49.8 °F 19% 29.97 in 10.0 mi West 6.9 mph - N/A   Clear
2:35 PM 100.0 °F - 49.3 °F 18% 29.96 in 10.0 mi NW 5.8 mph - N/A   Scattered Clouds
2:55 PM 100.6 °F - 48.0 °F 17% 29.95 in 10.0 mi West 9.2 mph - N/A   Scattered Clouds
3:15 PM 101.5 °F - 47.8 °F 16% 29.94 in 10.0 mi West 6.9 mph 16.1 mph N/A   Clear
3:35 PM 100.9 °F - 47.3 °F 16% 29.93 in 10.0 mi WNW 6.9 mph 17.3 mph N/A   Clear
3:55 PM 98.8 °F - 47.1 °F 17% 29.93 in 10.0 mi West 10.4 mph - N/A   Clear
4:15 PM 99.0 °F - 47.8 °F 18% 29.93 in 10.0 mi South 6.9 mph - N/A   Mostly Cloudy
4:35 PM 89.6 °F 87.3 °F 53.6 °F 29% 29.93 in 4.0 mi SSE 19.6 mph 32.2 mph N/A Rain Light Rain
4:55 PM 90.5 °F - 51.4 °F 26% 29.94 in 1.0 mi SSW 11.5 mph 18.4 mph 0.01 in   Haze
5:15 PM 90.3 °F - 49.3 °F 24% 29.92 in 10.0 mi WNW 6.9 mph 24.2 mph N/A Rain Light Rain
5:35 PM 91.9 °F - 49.6 °F 23% 29.93 in 10.0 mi WSW 21.9 mph 33.4 mph N/A   Scattered Clouds
5:55 PM 90.0 °F - 47.8 °F 23% 29.94 in 10.0 mi WNW 10.4 mph 24.2 mph N/A Rain Light Rain
6:15 PM 86.0 °F - 51.3 °F 30% 29.93 in 10.0 mi WSW 16.1 mph 26.5 mph N/A Rain Rain
6:35 PM 93.4 °F - 39.7 °F 15% 29.92 in 10.0 mi SE 3.5 mph 17.3 mph N/A   Scattered Clouds
6:55 PM 93.6 °F - 48.2 °F 21% 29.92 in 10.0 mi SSW 6.9 mph - N/A   Scattered Clouds
7:15 PM 89.4 °F 87.3 °F 54.0 °F 30% 29.92 in 10.0 mi SSW 12.7 mph - N/A   Mostly Cloudy
7:35 PM 86.0 °F 84.3 °F 54.7 °F 34% 29.93 in 10.0 mi South 18.4 mph 27.6 mph N/A   Mostly Cloudy
7:55 PM 83.8 °F 82.8 °F 55.4 °F 38% 29.94 in 10.0 mi South 15.0 mph 21.9 mph N/A   Scattered Clouds
8:15 PM 83.8 °F 82.8 °F 55.9 °F 38% 29.95 in 10.0 mi South 15.0 mph 19.6 mph N/A   Scattered Clouds
8:35 PM 83.5 °F 82.6 °F 56.1 °F 39% 29.95 in 10.0 mi SSW 15.0 mph 20.7 mph N/A   Clear
8:55 PM 82.4 °F 81.9 °F 56.3 °F 41% 29.95 in 10.0 mi South 13.8 mph 19.6 mph N/A   Clear
9:15 PM 81.7 °F 81.3 °F 55.9 °F 41% 29.95 in 10.0 mi South 11.5 mph - N/A   Clear
9:35 PM 80.4 °F 80.4 °F 55.4 °F 42% 29.96 in 10.0 mi South 11.5 mph - N/A   Clear
9:55 PM 78.8 °F - 56.3 °F 46% 29.96 in 10.0 mi South 8.1 mph - N/A   Clear
10:15 PM 77.9 °F - 59.2 °F 52% 29.96 in 10.0 mi South 6.9 mph - N/A   Clear
10:35 PM 77.9 °F - 59.2 °F 52% 29.97 in 10.0 mi South 8.1 mph - N/A   Clear
10:55 PM 77.2 °F - 59.4 °F 54% 29.97 in 10.0 mi SSW 5.8 mph - N/A   Clear
11:15 PM 77.0 °F - 58.6 °F 53% 29.97 in 10.0 mi SSW 4.6 mph - N/A   Clear
11:35 PM 75.7 °F - 58.5 °F 55% 29.98 in 10.0 mi WSW 3.5 mph - N/A   Clear
11:55 PM 74.7 °F - 58.6 °F 57% 29.98 in 10.0 mi SW 3.5 mph - N/A   Clear